This demonstration page uses our WeatherBlox Daily Observations layout. Learn more.

Left ArrowRight Arrow

Hourly Observations for January 23, 2022

Temp ( °F °C ) Dew Point ( °F °C ) Humidity (%) Winds ( mph kmh ) Pressure ( in mb ) Visibility ( mi km ) Precip ( " mm )
12:15 am 00:15 Cloudy 42 5.5 25 -4.1 50 50 WNW 12 19 30.13 1020 10 16 0.00 0.00
12:35 am 00:35 Mostly Cloudy 42 5.6 25 -4 50 50 WNW 12 19 30.13 1020 10 16 0.00 0.00
12:55 am 00:55 Partly Cloudy 39 4 24 -4.5 54 54 W 9 15 30.15 1021 10 16 0.00 0.00
1:15 am 01:15 Clear 38 3.2 24 -4.5 57 57 WNW 9 15 30.15 1021 10 16 0.00 0.00
1:35 am 01:35 Clear 38 3.4 25 -4 59 59 WNW 8 13 30.14 1021 10 16 0.00 0.00
1:55 am 01:55 Clear 37 2.5 25 -3.8 64 64 WNW 9 15 30.15 1021 10 16 0.00 0.00
2:15 am 02:15 Clear 38 3.3 26 -3.5 61 61 WNW 9 15 30.14 1021 10 16 0.00 0.00
2:35 am 02:35 Clear 37 2.8 26 -3.5 64 64 WNW 10 17 30.16 1021 10 16 0.00 0.00
2:55 am 02:55 Clear 36 2.4 26 -3.6 65 65 WNW 8 13 30.16 1021 10 16 0.00 0.00
3:15 am 03:15 Clear 35 1.9 26 -3.6 67 67 WNW 8 13 30.17 1022 10 16 0.00 0.00
3:35 am 03:35 Clear 35 1.6 26 -3.6 69 69 WNW 7 11 30.17 1022 10 16 0.00 0.00
3:55 am 03:55 Clear 33 0.8 25 -4.1 70 70 WNW 7 11 30.18 1022 10 16 0.00 0.00
4:15 am 04:15 Clear 30 -1.3 22 -5.3 75 75 WNW 5 7 30.20 1023 10 16 0.00 0.00
4:35 am 04:35 Clear 30 -1 23 -4.9 75 75 WNW 5 7 30.20 1023 10 16 0.00 0.00
4:55 am 04:55 Clear 29 -1.7 22 -5.4 76 76 W 6 9 30.21 1023 10 16 0.00 0.00
5:15 am 05:15 Clear 29 -1.5 23 -5 77 77 W 7 11 30.21 1023 10 16 0.00 0.00
5:35 am 05:35 Partly Cloudy 29 -1.6 23 -5.2 77 77 W 7 11 30.20 1023 10 16 0.00 0.00
5:55 am 05:55 Clear 28 -2.1 23 -5.1 80 80 NW 7 11 30.21 1023 10 16 0.00 0.00
6:15 am 06:15 Clear 26 -3.2 21 -6.2 80 80 W 3 6 30.24 1024 10 16 0.00 0.00
6:35 am 06:35 Clear 25 -4 20 -6.5 83 83 Calm 30.22 1024 10 16 0.00 0.00
6:55 am 06:55 Clear 26 -3.3 22 -5.4 86 86 W 3 6 30.23 1024 10 16 0.00 0.00
7:15 am 07:15 Mostly Cloudy 27 -3 23 -5.1 86 86 Calm 30.23 1024 10 16 0.00 0.00
7:35 am 07:35 Mostly Cloudy 26 -3.3 22 -5.6 84 84 W 3 6 30.25 1024 10 16 0.00 0.00
7:55 am 07:55 Sunny 25 -3.7 22 -5.7 86 86 W 5 7 30.26 1025 10 16 0.00 0.00
8:15 am 08:15 Mostly Cloudy 27 -2.7 23 -5 84 84 W 5 7 30.25 1024 10 16 0.00 0.00
8:35 am 08:35 Cloudy 29 -1.5 24 -4.2 82 82 SW 3 6 30.24 1024 10 16 0.00 0.00
8:55 am 08:55 Cloudy 30 -0.9 24 -4.3 78 78 W 5 7 30.22 1023 10 16 0.00 0.00
9:15 am 09:15 Cloudy 32 -0.2 25 -4 76 76 WSW 5 7 30.22 1023 10 16 0.00 0.00
9:35 am 09:35 Cloudy 33 0.4 26 -3.6 75 75 W 9 15 30.19 1022 10 16 0.00 0.00
9:55 am 09:55 Cloudy 35 1.6 26 -3.5 69 69 W 6 9 30.17 1022 10 16 0.00 0.00
10:15 am 10:15 Partly Cloudy 37 2.9 27 -3 66 66 W 5 7 30.15 1021 10 16 0.00 0.00
10:35 am 10:35 Sunny 40 4.4 28 -2.5 61 61 W 6 9 30.13 1020 10 16 0.00 0.00
10:55 am 10:55 Sunny 43 6 28 -2.3 56 56 W 7 11 30.12 1020 10 16 0.00 0.00
11:15 am 11:15 Sunny 45 7.4 28 -2.1 51 51 W 8 13 30.10 1019 10 16 0.00 0.00
11:35 am 11:35 Sunny 47 8.4 28 -2.1 48 48 W 9 15 30.08 1019 10 16 0.00 0.00
11:55 am 11:55 Sunny 48 8.8 28 -2.3 46 46 WSW 9 15 30.05 1018 10 16 0.00 0.00
12:15 pm 12:15 Sunny 49 9.6 28 -2.5 43 43 WSW 9 15 30.02 1016 10 16 0.00 0.00
12:35 pm 12:35 Sunny 50 10 27 -2.6 41 41 WSW 15 24 30.00 1016 10 16 0.00 0.00
12:55 pm 12:55 Mostly Cloudy 52 11 27 -2.6 39 39 W 15 24 29.98 1015 10 16 0.00 0.00
1:15 pm 13:15 Cloudy 52 11 27 -2.9 38 38 W 12 19 29.96 1015 10 16 0.00 0.00
1:35 pm 13:35 Cloudy 53 11.7 27 -2.8 37 37 WSW 8 13 29.95 1014 10 16 0.00 0.00
1:55 pm 13:55 Cloudy 54 12.1 27 -2.7 36 36 WSW 13 20 29.92 1013 10 16 0.00 0.00
2:15 pm 14:15 Cloudy 55 12.7 27 -2.8 34 34 W 12 19 29.91 1013 10 16 0.00 0.00
2:35 pm 14:35 Cloudy 56 13.2 27 -2.7 33 33 WSW 9 15 29.88 1012 10 16 0.00 0.00
2:55 pm 14:55 Cloudy 56 13.4 27 -2.7 33 33 SW 10 17 29.87 1012 10 16 0.00 0.00
3:15 pm 15:15 Cloudy 56 13.6 27 -2.7 32 32 W 10 17 29.87 1012 10 16 0.00 0.00
3:35 pm 15:35 Cloudy 58 14.6 26 -3.5 29 29 W 17 28 29.85 1011 10 16 0.00 0.00
3:55 pm 15:55 Cloudy 58 14.4 25 -3.7 29 29 WNW 13 20 29.84 1011 10 16 0.00 0.00
4:15 pm 16:15 Cloudy 57 14.1 25 -3.7 29 29 W 10 17 29.84 1010 10 16 0.00 0.00
4:35 pm 16:35 Cloudy 57 13.9 26 -3.6 30 30 W 10 17 29.83 1010 10 16 0.00 0.00
4:55 pm 16:55 Cloudy 56 13.6 26 -3.6 30 30 W 9 15 29.83 1010 10 16 0.00 0.00
5:15 pm 17:15 Cloudy 56 13.2 25 -3.8 31 31 W 10 17 29.82 1010 10 16 0.00 0.00
5:35 pm 17:35 Cloudy 55 12.5 25 -3.9 32 32 W 8 13 29.83 1010 10 16 0.00 0.00
5:55 pm 17:55 Cloudy 53 11.7 25 -4 33 33 WNW 8 13 29.84 1010 10 16 0.00 0.00
6:15 pm 18:15 Cloudy 51 10.7 24 -4.4 35 35 W 6 9 29.84 1010 10 16 0.00 0.00
6:35 pm 18:35 Cloudy 50 9.8 24 -4.6 36 36 W 6 9 29.84 1011 10 16 0.00 0.00
6:55 pm 18:55 Cloudy 49 9.7 24 -4.5 37 37 W 7 11 29.85 1011 10 16 0.00 0.00
7:15 pm 19:15 Cloudy 49 9.5 24 -4.5 37 37 W 7 11 29.84 1010 10 16 0.00 0.00
7:35 pm 19:35 Cloudy 51 10.3 24 -4.4 36 36 W 10 17 29.83 1010 10 16 0.00 0.00
7:55 pm 19:55 Cloudy 51 10.5 24 -4.5 35 35 W 12 19 29.83 1010 10 16 0.00 0.00
8:15 pm 20:15 Cloudy 51 10.7 24 -4.2 35 35 W 12 19 29.83 1010 10 16 0.00 0.00
8:35 pm 20:35 Cloudy 50 10.2 24 -4.3 36 36 W 9 15 29.83 1010 10 16 0.00 0.00
8:55 pm 20:55 Cloudy 49 9.6 24 -4.3 38 38 W 7 11 29.84 1010 10 16 0.00 0.00
9:15 pm 21:15 Cloudy 48 9.1 24 -4.5 38 38 W 9 15 29.83 1010 10 16 0.00 0.00
9:35 pm 21:35 Cloudy 48 9.1 24 -4.5 38 38 W 9 15 29.83 1010 10 16 0.00 0.00
9:55 pm 21:55 Cloudy 48 8.8 24 -4.3 40 40 WSW 8 13 29.82 1010 10 16 0.00 0.00
10:15 pm 22:15 Cloudy 48 8.7 24 -4.4 40 40 W 8 13 29.81 1010 10 16 0.00 0.00
10:35 pm 22:35 Cloudy 47 8.6 24 -4.3 40 40 W 10 17 29.81 1009 10 16 0.00 0.00
10:55 pm 22:55 Cloudy 47 8.5 24 -4.3 40 40 W 10 17 29.81 1009 10 16 0.00 0.00
11:15 pm 23:15 Cloudy 48 8.9 24 -4.2 40 40 W 10 17 29.80 1009 10 16 0.00 0.00
11:35 pm 23:35 Cloudy 48 8.9 24 -4.2 40 40 W 13 20 29.80 1009 10 16 0.00 0.00
11:55 pm 23:55 Cloudy 47 8.1 24 -4.2 42 42 W 10 17 29.81 1009 10 16 0.00 0.00

Powered by AerisWeather